{"data":{"norad_id":63369,"intl_designator":"2025-063G","name":"STARLINK-33626","alt_names":[],"object_type":"PAYLOAD","status":"ACTIVE","operator":null,"country":"US","launch_date":"2025-03-26","launch_site_code":"AFWTR","launch_vehicle":null,"mission":null,"orbit_class":"UNKNOWN","rcs_meters":null,"size_class":null,"mass_kg":null,"dimensions":null,"purposes":["comms"],"wikipedia_slug":null,"has_3d_model":false,"image_url":null,"decayed_at":null,"tle_current":{"epoch":"2026-05-25T04:00:03.998880Z","epoch_age_seconds":56803,"freshness":"FRESH","line1":"1 63369U 25063G   26145.16671295  .00454879  00000+0  12793-1 0  9997","line2":"2 63369  53.1593  54.8131 0001180  68.0123 251.9792 15.34111821  5903","mean_motion":15.34111821,"eccentricity":0.000118,"inclination_deg":53.1593,"raan_deg":54.8131,"arg_perigee_deg":68.0123,"mean_anomaly_deg":251.9792,"bstar":0.012793,"rev_number":590,"period_min":93.865387143771,"perigee_km":462.75258276934,"apogee_km":464.36722323845,"semimajor_km":6841.6969030039,"source":"CELESTRAK","updated_at":"2026-05-25T13:38:19.962642Z"}}}